Вернуться в каталог

SL-16 DEB

АктивенLEO
NORAD 22619·DEBRIS·🇷🇺 Russia

Запущен Mar 26, 1993 с Baikonur Cosmodrome

Loading…

Ближайшие Пролёты (ближайшие 24 часа)

TLE

СвежийSource: Space-Track

Эпоха: Sep 14, 2026, 11:15 UTC

1 22619U 93016AD  26257.46909315 -.00000026  00000-0  15343-4 0  9997
2 22619  70.9992  65.8882 0185621  16.7470  13.5177 13.73896122677368

Отслеживайте SL-16 DEB в реальном времени с AllMySat

Download on the App Store